Location: Ediger
(50.1000°N, 7.1667°E)
Time: 19:36:50
(UTC+00:00)

Daily predictions for brighter satellites

Satellite Brightness Start Highest point End
(mag) Time Altitude Azimuth Time Altitude Azimuth Time Altitude Azimuth
Cosmos 2333 Rocket 2.8 17:48:58 10° S 17:54:02 34° ESE 17:59:09 10° NE
Cosmos 1295 Rocket 4.5 17:49:44 10° S 17:55:55 71° E 18:02:02 10° NNE
Meteor 2-4 Rocket 3.8 17:51:43 10° N 17:57:38 76° ENE 18:03:34 10° SSE
Cosmos 2322 Rocket 2.7 17:54:27 10° SW 18:00:02 67° WNW 18:05:39 10° NNE
Nadezhda 3 Rocket 4.3 17:53:53 10° NNW 18:00:17 81° W 18:06:39 10° S
Helios 1A Rocket 3.3 17:56:51 10° SE 18:00:40 42° ENE 18:04:31 10° N
Lacrosse 4 Rocket 2.2 17:57:13 10° S 18:01:11 34° ESE 18:05:15 10° NE
CZ-2D R/B 4.4 17:58:04 10° S 18:01:46 49° W 18:05:31 10° NNW
GP-B 3.5 17:58:22 10° SSE 18:02:33 43° E 18:06:47 10° N
ARGOS 3.2 17:59:31 10° SSE 18:04:52 64° ENE 18:10:16 10° N
Cosmos 1992 Rocket 4.4 17:59:48 10° SSW 18:05:01 71° WNW 18:10:16 10° NNE
ERBS 3.9 18:02:58 10° WNW 18:05:50 26° N 18:08:41 10° NE
Cosmos 1869 Rocket 4.2 18:05:05 10° SSE 18:09:01 33° E 18:12:59 10° NNE
CZ-4B R/B 1.7 18:06:42 10° N 18:09:45 64° WNW 18:12:50 10° SSW
CZ-4 R/B 1.5 18:06:21 10° S 18:10:14 79° WSW 18:14:14 10° NNW
Cosmos 2219 Rocket 2.6 18:05:19 10° S 18:10:28 40° ESE 18:15:41 10° NE
Cosmos 2154 Rocket 4.2 18:07:02 10° SSW 18:13:15 77° W 18:19:29 10° N
FALCON 9 DEB 2.9 18:10:42 10° WNW 18:13:52 84° SSW 18:16:47 12° ESE
ERS-2 2.4 18:10:46 10° NNE 18:14:17 43° E 18:17:47 10° S
CZ-2C R/B 3.0 18:09:25 10° NNE 18:14:35 42° E 18:19:36 10° SSE
Cosmos 1689 Rocket 2.2 18:13:05 10° NNE 18:15:52 45° E 18:18:41 10° S
Cosmos 1238 Rocket 3.9 18:14:18 10° SE 18:17:11 20° E 18:19:45 10° NE
Cosmos 1378 3.9 18:14:34 10° N 18:17:57 32° ENE 18:21:18 10° SE
USA 305 3.1 18:14:49 10° WNW 18:19:04 60° NNE 18:22:40 14° E
SL-08 RB Rocket 3.8 18:15:18 10° SSE 18:19:46 60° ENE 18:24:19 10° N
H-2A R/B 4.1 18:16:32 10° N 18:20:08 30° WNW 18:23:46 10° SW
CREW DRAGON DEMO-1 DEB 4.1 18:20:28 10° SSW 18:22:44 22° SE 18:23:59 17° ESE
NOSS 3-2 (A) 4.2 18:18:16 10° S 18:23:00 28° ESE 18:28:15 10° ENE
FALCON 9 DEB 2.9 18:20:08 10° WNW 18:23:20 84° SSW 18:25:51 15° ESE
HJ-1C 3.3 18:21:01 10° SSE 18:24:19 87° ENE 18:27:38 10° NNW
COSMOS 2428 3.0 18:19:52 10° S 18:25:11 43° ESE 18:30:33 10° NE
Cosmos 1733 Rocket 4.4 18:23:30 10° SE 18:26:29 18° E 18:29:30 10° NE
SL-16 R/B 3.7 18:23:17 10° WSW 18:28:33 38° NW 18:33:50 10° NNE
USA 307 3.0 18:28:34 10° WNW 18:32:51 64° NNE 18:35:52 18° E
Cosmos 2369 Rocket 4.2 18:30:33 10° N 18:33:01 13° NNE 18:35:28 10° NE
USA 306 3.0 18:29:50 10° WNW 18:34:08 66° NNE 18:37:06 19° E
SL-8 Rocket 3.9 18:28:14 10° S 18:34:23 68° E 18:40:31 10° NNE
CENTAUR R/B 3.4 18:30:11 10° SSE 18:34:50 24° ESE 18:40:05 10° ENE
Cosmos 1898 Rocket 4.4 18:31:27 10° N 18:36:06 31° NE 18:39:11 18° ESE
ATLAS CENTAUR R/B 2.5 18:32:54 10° WSW 18:36:20 37° NW 18:39:50 10° NNE
Cosmos 1066 Rocket 4.3 18:30:37 10° N 18:36:21 63° ENE 18:42:09 10° SSE
Cosmos 1743 3.8 18:37:48 10° SE 18:40:59 25° E 18:44:11 10° NE
Cosmos 1666 2.8 18:38:58 10° SSW 18:42:41 78° W 18:46:28 10° N
Cosmos 1703 Rocket 4.4 18:38:24 10° NNW 18:42:41 54° W 18:46:55 10° S
USA 308 3.0 18:39:24 10° WNW 18:43:41 70° NNE 18:46:16 23° E
CSL-04 Rocket 3.9 18:40:20 10° SSE 18:45:53 79° WSW 18:51:23 10° NNW
Cosmos 2322 3.7 18:40:19 10° SSW 18:46:03 87° ESE 18:51:49 10° NNE
Meteor 1-23 Rocket 4.3 18:41:13 10° N 18:46:46 59° ENE 18:52:21 10° SSE
Okean-O 4.0 18:44:57 10° S 18:49:08 42° W 18:53:22 10° NNW
BREEZE-M DEB (TANK) 4.0 18:48:03 10° SSW 18:50:06 24° SE 18:50:06 24° SE
ASTEX 1 3.6 18:46:14 10° NNE 18:50:56 45° E 18:55:37 10° SSE
Cosmos 2366 rocket 4.0 18:46:19 10° S 18:52:38 75° E 18:59:00 10° NNE
H-2A R/B 3.6 18:48:10 10° SSW 18:53:17 40° W 18:58:23 10° NNW
Cosmos 1674 Rocket 4.3 18:50:14 10° N 18:54:06 31° ENE 18:55:16 27° E
SJ-6B 2.9 18:52:44 15° SSE 18:55:58 56° ENE 18:59:53 10° N
Cosmos 990 Rocket 4.2 18:51:45 10° NNW 18:56:46 48° ENE 18:59:41 24° ESE
Cosmos 2221 Rocket 3.6 18:53:50 10° N 18:58:15 61° ENE 19:02:10 13° SSE
Ariane Rocket 3.1 18:55:34 15° SE 18:59:35 53° ENE 19:04:33 10° N
USA 186 1.0 18:59:36 45° SSE 19:00:15 84° E 19:02:55 10° NNW
Cosmos 1763 Rocket 4.3 18:58:15 10° SSE 19:02:42 28° E 19:07:11 10° NE
OBJECT-B 0.9 19:02:10 41° ESE 19:02:54 52° ENE 19:06:04 10° N
NOSS 3-2 (C) 3.9 18:59:41 10° S 19:04:38 32° ESE 19:08:11 19° ENE
Meteor 1-11 Rocket 3.7 19:00:54 10° S 19:06:35 88° W 19:12:11 10° NNE
Cosmos 1378 Rocket 4.1 19:04:29 10° N 19:08:39 36° ENE 19:09:21 34° E
Cosmos 2360 Rocket 3.6 19:05:24 10° WSW 19:10:40 38° NW 19:15:58 10° NNE
FALCON 9 DEB 4.0 19:10:03 10° WNW 19:13:02 38° SSW 19:13:45 32° S
Cosmos 1943 Rocket 3.4 19:09:14 10° NNW 19:13:58 26° NE 19:15:25 23° ENE
Cosmos 468 Rocket 4.5 19:09:30 10° SSE 19:14:18 36° ESE 19:19:06 10° NE
SJ 16-02 1.6 19:11:31 10° NNW 19:15:56 70° WSW 19:19:19 17° S
Cosmos 1727 Rocket 4.0 19:09:57 10° N 19:16:10 87° W 19:22:24 10° S
Cosmos 1821 Rocket 4.0 19:10:54 10° SSE 19:16:53 52° E 19:22:49 10° NNE
DMSP B5D2-2 4.0 19:11:47 10° NNE 19:17:03 87° ESE 19:22:16 10° SSW
Cosmos 2237 Rocket 2.5 19:12:14 10° S 19:17:36 43° ESE 19:22:58 10° NE
Cosmos 2278 Rocket 2.2 19:12:29 10° NNW 19:18:11 84° WSW 19:22:11 20° SSE
Cosmos 1544 2.9 19:15:02 10° S 19:18:38 67° E 19:22:18 10° NNE
MOS 1 4.2 19:15:42 15° SSE 19:20:27 79° ENE 19:26:09 10° NNW
FALCON 9 DEB 4.3 19:18:01 10° W 19:20:51 30° SW 19:21:22 28° SSW
Cosmos 1000 Rocket 4.5 19:14:34 10° N 19:20:51 64° ENE 19:25:17 20° SSE
Cosmos 1536 3.2 19:17:07 10° SSW 19:21:04 63° WNW 19:25:02 10° N
SL-4 R/B 4.1 19:19:09 10° W 19:21:16 15° SW 19:22:57 12° S
USA 81 4.0 19:17:29 10° SSE 19:22:38 58° E 19:27:48 10° NNE
SWAS 4.4 19:18:55 10° SSW 19:23:13 87° WNW 19:27:33 10° NNE
SeaSat 1 2.3 19:18:55 10° NNE 19:23:54 83° ESE 19:28:50 10° SSW
SPOT 3 Rocket 3.8 19:24:25 39° ESE 19:25:43 48° ENE 19:30:44 10° N
Cosmos 2218 Rocket 4.5 19:20:42 10° SSW 19:27:04 64° WNW 19:33:24 10° N
Abrixas rocket 4.4 19:25:59 10° WSW 19:26:46 12° SW 19:26:46 12° SW
Cosmos 1934 Rocket 4.3 19:30:07 38° ESE 19:30:48 39° E 19:36:28 10° NNE
Resurs 01 Rocket 1.9 19:31:41 47° ENE 19:31:41 47° ENE 19:35:57 10° N
SME Rocket 3.9 19:24:00 10° NNE 19:31:42 80° ESE 19:36:40 10° SSW
Meteor 2-20 Rocket 4.3 19:26:08 10° N 19:32:18 85° E 19:37:09 17° S
SPOT 1/Viking Rocket 4.4 19:33:55 31° ENE 19:33:55 31° ENE 19:38:19 10° N
USA 234 3.5 19:33:09 36° E 19:34:56 43° SE 19:41:05 10° SSW
Gbstr 26 Del rocket 3.5 19:32:01 10° WNW 19:36:45 68° SSW 19:38:19 45° SE
Cosmos 2333 Rocket 3.1 19:32:38 10° SW 19:38:09 49° NW 19:43:44 10° NNE
Cosmos 1937 Rocket 3.4 19:33:46 10° NNW 19:38:56 64° ENE 19:39:50 54° ESE
Cosmos 2123 Rocket 4.0 19:33:12 10° N 19:39:21 56° ENE 19:41:02 43° SE
Lacrosse 4 Rocket 2.9 19:35:40 10° WSW 19:39:50 39° NW 19:44:06 10° NNE
ERBS 3.9 19:39:47 10° NW 19:42:16 26° N 19:42:16 26° N
IGS 5A 4.3 19:44:27 37° NNE 19:44:27 37° NNE 19:47:22 10° N
USA 238 DEB 3.5 19:37:46 10° SSW 19:44:20 75° SE 19:51:14 10° NE
USA 238 3.5 19:37:54 10° SSW 19:44:25 74° SE 19:51:21 10° NE
Cosmos 1842 3.6 19:42:03 10° N 19:45:12 53° NNE 19:45:12 53° NNE
Resurs 1-3 3.6 19:45:27 52° S 19:46:29 80° WSW 19:50:55 10° NNW
Cosmos 2219 Rocket 3.4 19:49:07 10° WSW 19:54:25 42° NW 19:59:47 10° NNE
CZ-2C R/B 4.2 19:49:53 10° N 19:54:48 35° WNW 19:59:35 10° SW
Cosmos 1238 Rocket 4.4 19:53:02 10° SW 19:56:33 31° WNW 19:59:38 10° N
USA 305 3.5 19:54:53 10° WNW 19:58:46 50° SW 19:58:46 50° SW
Terra 3.8 20:00:53 16° NNE 20:00:53 16° NNE 20:02:30 10° NNE
ERS-1 Rocket 4.4 20:03:06 26° NNE 20:03:06 26° NNE 20:06:02 10° N
Cosmos 1980 3.6 19:56:36 10° SSW 20:02:16 88° NW 20:07:57 10° NNE
Cosmos 1733 Rocket 3.8 19:59:38 10° SSW 20:03:53 52° WNW 20:08:11 10° N
COSMOS 2428 4.0 20:04:12 10° WSW 20:09:32 40° NW 20:14:55 10° NNE
Meteor 2-9 Rocket 4.0 20:10:28 77° NE 20:10:28 77° NE 20:15:29 10° NNE
USA 307 4.0 20:08:43 10° WNW 20:12:00 39° WSW 20:12:00 39° WSW
NOSS 3-2 (A) 3.6 20:07:27 10° SW 20:13:12 70° NW 20:19:56 10° NE
Spot 2 Rocket 4.1 20:14:35 44° NNE 20:14:35 44° NNE 20:18:26 10° N
USA 306 4.1 20:09:58 10° WNW 20:13:13 37° WSW 20:13:13 37° WSW
Cosmos 1605 Rocket 4.4 20:15:57 47° NE 20:15:57 47° NE 20:20:52 10° NNE
ATLAS CENTAUR R/B 4.0 20:14:41 10° NW 20:16:14 12° NNW 20:17:48 10° N
Cosmos 1898 Rocket 4.2 20:13:22 10° NNW 20:18:24 48° WSW 20:19:30 41° SW
Cosmos 2369 Rocket 3.0 20:13:29 10° NNW 20:18:00 37° NNE 20:18:00 37° NNE
NOSS 0 Rocket 4.4 20:16:42 10° SW 20:22:47 60° NW 20:28:53 10° NNE
USA 308 4.4 20:19:35 10° WNW 20:22:24 31° WSW 20:22:24 31° WSW
CENTAUR R/B 2.5 20:18:29 10° SW 20:24:33 83° NW 20:31:54 10° NE
OBJECT-B 4.1 20:35:13 11° W 20:35:27 11° W 20:36:27 10° WNW
Cosmos 372 Rocket 4.5 20:31:27 10° NNW 20:35:35 57° NW 20:35:35 57° NW
ARIANE 5 R/B 4.2 20:39:17 31° NNW 20:39:17 31° NNW 20:41:42 10° NNW
Cosmos 1763 Rocket 4.3 20:39:05 10° SW 20:44:15 51° WNW 20:49:28 10° NNE
Cosmos 2297 4.0 20:39:31 10° NNW 20:44:36 63° WNW 20:44:36 63° WNW
USA 281 4.1 20:54:08 37° NNE 20:54:08 37° NNE 20:59:21 10° NNW
NOSS 3-2 (C) 3.7 20:49:17 10° WSW 20:55:03 63° NW 20:55:55 57° N
Cosmos 1943 Rocket 2.8 20:52:39 10° NNW 20:56:57 52° NW 20:56:57 52° NW
Cosmos 2237 Rocket 3.4 20:56:22 10° WSW 21:01:44 40° NW 21:07:06 10° NNE
Resurs 01 Rocket 3.9 21:09:14 21° WNW 21:09:14 21° WNW 21:11:53 10° NW
USA 234 3.9 21:20:31 45° WSW 21:20:31 45° WSW 21:24:50 10° WSW
Terra 4.2 21:39:46 19° NNW 21:39:46 19° NNW 21:41:09 10° NNW
Cosmos 2369 Rocket 4.2 21:57:33 10° NW 21:59:48 23° NW 21:59:48 23° NW
CENTAUR R/B 4.1 22:10:19 10° W 22:16:19 35° NNW 22:23:19 10° NE
